Вернуться в каталог

CZ-6A DEB

АктивенPO
NORAD 60634·DEBRIS·🇨🇳 China

Запущен Aug 6, 2024 с Taiyuan Satellite Launch Center

Loading…

Ближайшие Пролёты (ближайшие 24 часа)

TLE

СвежийSource: Space-Track

Эпоха: Sep 14, 2026, 06:24 UTC

1 60634U 24140AK  26257.26721194  .00006288  00000-0  47456-3 0  9997
2 60634  89.0575 261.8844 0126662 186.6843 173.2707 14.96011438113747

Отслеживайте CZ-6A DEB в реальном времени с AllMySat

Download on the App Store